Location: Unspecified
(49.9820°N, 20.4363°E)
Time: 04:02:46
(UTC+02:00)

Vanguard 3 - Pass Details

Date: 23 May 2026
Orbit: 507 x 3204 km, 33.3° (Epoch: 6 June)

Event Time Altitude Azimuth Distance (km) Brightness Sun altitude
Rises 12:13:26 0° 229° (SW) 5,636 11.6 60.3°
Reaches altitude 10° 12:17:02 10° 221° (SW) 4,961 11.6 60.4°
Maximum altitude 12:30:45 39° 160° (SSE) 3,928 12.1 60.6°
Drops below altitude 10° 12:47:41 10° 101° (E) 6,097 11.8 60.5°
Sets 12:52:43 0° 95° (E) 7,007 11.9 60.4°
